This is the latest recevied weather packets stored in our database for station/object N5PA. If no packets are shown the sender has not sent any weather packets the latest 10 day(s).
| Time | Temp. | Humidity | Pressure | Rain* | Wind** | Luminosity | Snow |
|---|---|---|---|---|---|---|---|
| 1777629305 | 15° C | 36% | 1012.5 hPa | 0 mm | - | 1023 W/m² | - |
| 1777629007 | 15° C | 37% | 1012.7 hPa | 0 mm | - | 1021 W/m² | - |
| 1777628706 | 15° C | 36% | 1012.8 hPa | 0 mm | - | 1021 W/m² | - |
| 1777628406 | 15.56° C | 36% | 1012.8 hPa | 0 mm | - | 1020 W/m² | - |
| 1777628106 | 15.56° C | 36% | 1012.8 hPa | 0 mm | - | 1023 W/m² | - |
| 1777627805 | 15.56° C | 36% | 1012.8 hPa | 0 mm | - | 1018 W/m² | - |
| 1777627505 | 15.56° C | 36% | 1012.6 hPa | 0 mm | - | 1021 W/m² | - |
| 1777627206 | 15.56° C | 36% | 1012.6 hPa | 0 mm | - | 1023 W/m² | - |
| 1777626906 | 15.56° C | 36% | 1012.4 hPa | 0 mm | - | 1023 W/m² | - |
| 1777626605 | 15.56° C | 36% | 1012.4 hPa | 0.25 mm | - | 1021 W/m² | - |
| 1777626305 | 15.56° C | 36% | 1012.4 hPa | 0.25 mm | - | 1021 W/m² | - |
| 1777626006 | 15.56° C | 36% | 1012.6 hPa | 0.25 mm | - | 1021 W/m² | - |
| 1777625706 | 15.56° C | 36% | 1012.8 hPa | 0.25 mm | - | 1021 W/m² | - |
| 1777625406 | 15.56° C | 36% | 1012.8 hPa | 0.25 mm | - | 1020 W/m² | - |
| 1777625105 | 15.56° C | 36% | 1012.8 hPa | 0.25 mm | - | 1020 W/m² | - |
| 1777624804 | 15.56° C | 36% | 1012.7 hPa | 0.25 mm | - | 1023 W/m² | - |
| 1777624505 | 15.56° C | 36% | 1012.4 hPa | 0.25 mm | - | 1020 W/m² | - |
| 1777624205 | 15.56° C | 37% | 1012 hPa | 0.25 mm | - | 1020 W/m² | - |
| 1777623906 | 15.56° C | 37% | 1011.7 hPa | 0.25 mm | - | 1021 W/m² | - |
| 1777623606 | 15.56° C | 37% | 1011.8 hPa | 0.25 mm | - | 1020 W/m² | - |
| 1777623305 | 15.56° C | 37% | 1011.6 hPa | 0.25 mm | - | 1023 W/m² | - |
| 1777623006 | 15.56° C | 37% | 1011.1 hPa | 0 mm | - | 1021 W/m² | - |
| 1777622704 | 15.56° C | 37% | 1011.9 hPa | 0 mm | - | 1021 W/m² | - |
| 1777622404 | 15.56° C | 37% | 1012.7 hPa | 0 mm | - | 1021 W/m² | - |
| 1777622106 | 15.56° C | 37% | 1013 hPa | 0 mm | - | 1021 W/m² | - |
* Rain latest hour (hover to see other rain measurements)
** Current wind speed in m/s (hover to see current wind gust speed)